Vertical_Velocity
-1 -1 -0 0 -0 -1 -1 -0 -0 -1 0 -1 0 2 1 1 1 3 -8 2 1 2 2 2 1 2 2 3 2 0 -5 -0 -2 -1 -1 1 -2 2 1 -0 -1 1 5 5 6
0 0 -0 -1 0 0 -0 -1 -1 -0 -1 -1 -1 1 -1 -0 -0 -6 2 2 1 2 2 2 2 2 -0 1 1 -4 -2 -3 -1 -1 1 1 -1 -1 -3 -4 -9 -5 11 3 -2
-1 -0 -1 -1 0 -0 -1 -1 -0 -0 1 0 -0 -1 -1 -0 -1 -0 1 1 1 -0 -1 -1 -0 -2 -1 -0 2 0 -1 -1 -1 3 1 0 -5 0 -0 -3 10 4 -8 1 14
-1 -1 -2 -1 -1 -0 0 -0 -1 -2 -2 -1 -1 -1 2 2 -5 -2 -1 -1 -1 -2 -2 -1 -1 -2 -1 -1 1 -3 0 0 -1 -0 -1 -0 -0 -1 1 9 15 6 7 -0 -4
1 0 0 1 1 -0 -1 -1 -0 1 1 1 2 2 1 -6 -1 1 1 -1 -1 0 -1 -2 -2 0 -0 -0 -1 1 -0 -0 3 4 0 0 -0 4 -5 6 4 3 -3 -4 1
-1 -1 -1 -0 -0 0 1 1 0 -1 -1 -2 -2 -1 -2 -11 3 1 -2 -0 1 0 -2 -3 -2 -2 -0 -0 -1 0 -1 3 -2 0 0 -2 5 -11 -6 2 -2 -2 -0 -0 -0
-1 -1 0 0 0 -1 -0 -0 0 2 2 1 0 3 -6 5 7 5 1 -1 1 3 2 1 -1 -2 0 -1 0 1 -1 -1 -5 -2 -1 6 -5 -0 5 4 -1 -3 -1 2 0
-2 -1 -1 -1 -1 -1 -1 0 -0 1 1 -0 -1 0 -4 5 7 -2 3 1 0 -1 1 2 -0 -1 -3 0 -2 -3 -4 -2 1 -3 -3 1 3 5 4 -2 -0 -1 -2 -1 -1
-0 -0 -0 -0 1 -2 -3 -4 -1 1 0 0 -1 0 1 5 -14 5 -0 -3 -1 3 -2 1 -1 -2 -9 -2 -3 -5 -0 -1 1 1 -0 -5 -0 4 4 -3 -2 -2 3 -1 -1
-2 -3 -1 -1 -0 -0 -0 1 1 -1 -0 -0 -1 -5 -5 3 -5 4 2 -3 -2 5 -3 -9 -5 -4 -4 -6 0 -1 -1 -2 0 -3 -4 -2 3 1 -2 -6 2 0 -3 1 -0
-2 0 -1 -2 -3 0 0 0 0 -5 -19 1 5 2 2 1 5 -13 -12 4 -8 -10 -2 -1 -15 -0 3 2 1 1 1 1 -2 -0 0 1 1 4 3 -6 -6 -3 -3 -2 5
-2 -3 -3 0 2 -1 1 -2 -2 -3 -3 7 -1 -4 3 3 -6 -18 -6 -12 -12 -1 -1 -9 -0 3 -0 -1 0 -1 -0 -1 -4 -2 3 -0 4 3 -0 6 5 3 -1 -1 -3
-1 1 1 0 -2 -2 -5 -2 -2 1 -5 2 1 -4 -2 -3 -6 -4 -2 4 -1 -4 -0 -4 3 -1 -1 -1 -4 -1 -1 0 3 -2 -2 -0 3 -2 -1 -4 -3 -4 4 -1 1
-2 -2 -3 -2 -0 -1 -4 -3 2 1 -8 -8 -6 -1 -6 -1 -5 6 4 2 -4 1 -0 -0 1 0 -2 -0 1 1 2 3 1 0 -2 -4 -2 -1 -0 -1 -4 -2 -3 -1 -2
-2 -2 -2 -1 0 -1 2 1 2 1 -8 -9 0 8 10 -14 2 -21 0 -2 1 2 -4 3 -1 -2 -2 6 2 -3 4 3 1 1 -0 -3 -4 -4 -1 -6 -3 -3 -1 -0 1
-1 0 -0 -3 -1 -1 -0 -1 -1 -17 -11 -3 2 -2 -5 -5 -1 -1 -8 -2 -0 -2 -2 1 2 -1 2 -2 2 -0 -2 -2 -1 -1 -4 1 3 -5 -1 1 -3 -3 -3 -0 -2
1 0 -3 -1 -1 -0 -2 -1 -13 -10 -5 -2 0 -1 -1 -0 -1 -2 -3 -6 -3 -4 -4 -3 -1 -1 -1 -2 -5 -8 -5 -4 -10 -8 -1 0 -4 -9 -2 -1 2 2 -2 -3 -1
-2 0 1 -2 -1 -0 0 -9 -7 1 2 -0 -0 -1 -2 0 1 -1 -1 -2 -3 -2 -1 -0 -6 -1 -2 1 4 1 0 -3 -3 -1 -5 -2 -3 -19 -3 2 0 1 3 -1 -3
-0 -0 -1 -3 -2 -2 -0 -8 0 1 1 1 -1 -3 -1 -1 -1 -3 -0 0 1 1 -3 -1 -3 -3 -0 -0 -1 -5 -3 -2 0 -1 2 -1 -3 -8 -2 -3 -6 -3 -3 -3 -2
-1 -2 -2 0 0 -2 -13 -2 0 0 -0 -1 -1 -1 -0 -1 -4 -4 -1 0 0 0 0 -1 -2 -1 -3 -3 -1 -3 -2 -8 -2 -2 -1 -4 -1 -7 -3 -3 -2 -6 -3 -5 -1
0 0 -0 -1 -1 -6 -5 0 0 1 1 -2 -0 -1 1 0 0 0 1 -0 -0 -2 -0 -0 -2 -11 -3 -2 -1 -5 -3 -3 0 2 -2 -0 -11 -5 -2 -1 -1 -2 -0 -1 2
-2 -5 -2 -3 -16 1 -1 0 1 1 -1 -1 -4 -1 -0 -0 -0 -0 -1 1 1 1 -0 -1 -2 -0 -3 0 -1 -1 -1 -1 -2 -9 -1 -2 -15 -1 -1 -1 5 1 -1 0 2
-2 -2 -1 1 -5 0 2 1 -1 -1 1 -0 0 -1 0 -0 -1 -0 0 0 -1 -0 -0 -4 -3 -3 -12 -2 -5 -2 1 -0 -0 0 -1 -0 -14 -1 0 -2 -3 -1 -4 -1 -2
-2 -6 -5 -11 1 -4 -1 1 0 0 -1 -0 -1 -2 -1 0 -0 -1 -0 -1 -1 -0 1 -0 -0 -6 -7 -10 -1 1 0 -0 -1 1 -1 -4 -5 -7 -3 -1 -8 -8 -1 -2 -1
-3 0 -0 -2 -3 -1 -2 -1 0 0 -1 0 -0 -1 -1 -0 -0 -0 -0 -2 0 -0 -2 -4 -1 1 -2 -1 1 -0 -0 0 -0 -1 3 -5 2 -1 1 3 1 2 -2 -3 -4
-1 -4 -1 -1 1 -2 -1 2 -1 2 -2 1 -2 -0 0 -0 -3 -2 -0 -0 -0 -3 -1 -1 -4 1 -2 -0 0 0 0 -0 0 -1 -0 1 -6 5 -5 -1 -5 -1 0 -2 -3
-1 -1 -0 1 -0 -2 -1 1 0 -2 1 -1 -2 -1 1 -2 -1 -0 0 1 0 -1 -0 -0 -0 -2 -3 0 -2 -4 -1 0 -1 -0 2 1 0 -0 -9 -3 -1 -7 1 -0 -4
Height
1532 1530 1526 1523 1521 1518 1515 1512 1510 1507 1505 1502 1500 1499 1499 1499 1499 1499 1499 1503 1500 1499 1498 1498 1498 1499 1500 1500 1501 1502 1512 1517 1508 1510 1503 1503 1503 1503 1503 1503 1502 1502 1502 1501 1500
1532 1529 1526 1523 1520 1517 1515 1512 1509 1507 1504 1502 1500 1499 1498 1499 1500 1500 1504 1502 1501 1499 1499 1500 1500 1501 1501 1502 1503 1504 1514 1510 1505 1504 1503 1504 1504 1504 1502 1500 1498 1497 1499 1501 1500
1532 1529 1526 1522 1519 1516 1513 1510 1508 1505 1502 1500 1499 1498 1499 1499 1501 1505 1504 1502 1501 1500 1500 1501 1501 1501 1502 1503 1505 1508 1512 1509 1506 1505 1505 1505 1504 1505 1505 1506 1509 1503 1495 1495 1496
1532 1529 1525 1522 1519 1515 1512 1510 1507 1504 1502 1500 1499 1498 1498 1499 1508 1507 1505 1503 1502 1500 1500 1501 1501 1502 1504 1506 1507 1509 1507 1509 1507 1507 1506 1506 1506 1507 1513 1519 1513 1503 1496 1490 1491
1532 1529 1525 1522 1518 1515 1512 1509 1506 1504 1502 1500 1499 1499 1499 1501 1510 1508 1506 1504 1502 1500 1499 1499 1501 1502 1504 1505 1505 1506 1507 1508 1508 1505 1506 1504 1503 1506 1515 1516 1511 1504 1496 1494 1492
1532 1528 1524 1521 1517 1514 1511 1508 1505 1504 1502 1501 1501 1500 1500 1507 1512 1509 1506 1504 1502 1501 1500 1500 1500 1501 1502 1502 1504 1506 1507 1508 1508 1508 1507 1507 1509 1507 1520 1518 1510 1505 1502 1500 1497
1532 1528 1524 1520 1517 1514 1511 1508 1506 1505 1504 1503 1503 1504 1502 1513 1514 1511 1507 1504 1503 1503 1502 1502 1502 1502 1503 1503 1504 1503 1504 1506 1512 1511 1511 1507 1515 1529 1527 1518 1511 1509 1507 1504 1501
1532 1528 1524 1520 1517 1513 1510 1508 1507 1506 1506 1506 1505 1504 1511 1515 1514 1510 1507 1505 1505 1505 1503 1502 1502 1502 1504 1504 1503 1506 1507 1511 1521 1516 1512 1506 1515 1529 1524 1517 1514 1513 1511 1507 1503
1531 1528 1524 1520 1517 1514 1511 1510 1509 1508 1507 1507 1507 1506 1515 1516 1513 1512 1509 1507 1507 1506 1504 1504 1503 1507 1509 1514 1513 1520 1520 1517 1519 1523 1521 1516 1520 1531 1525 1520 1520 1518 1515 1513 1508
1531 1527 1524 1520 1518 1515 1512 1511 1510 1509 1509 1508 1510 1513 1519 1522 1518 1515 1513 1509 1508 1505 1504 1505 1507 1519 1526 1525 1530 1537 1533 1526 1525 1527 1526 1523 1531 1533 1533 1527 1525 1520 1517 1515 1512
1531 1527 1523 1520 1517 1515 1512 1511 1513 1514 1513 1518 1521 1521 1523 1522 1521 1515 1511 1511 1510 1510 1517 1516 1526 1541 1541 1537 1536 1535 1536 1539 1532 1530 1530 1531 1535 1536 1537 1533 1530 1526 1523 1520 1516
1531 1527 1523 1519 1517 1514 1512 1510 1511 1516 1521 1523 1523 1523 1524 1523 1520 1519 1517 1515 1520 1524 1518 1526 1541 1542 1541 1540 1538 1537 1537 1540 1531 1528 1530 1533 1541 1539 1538 1538 1536 1532 1527 1522 1517
1530 1526 1523 1519 1517 1516 1513 1512 1512 1514 1518 1525 1524 1525 1526 1526 1532 1528 1523 1522 1525 1531 1531 1536 1546 1542 1540 1541 1539 1538 1543 1543 1540 1530 1525 1530 1537 1540 1538 1537 1535 1532 1530 1526 1521
1530 1526 1523 1519 1518 1514 1513 1513 1513 1514 1524 1530 1528 1531 1531 1529 1533 1533 1529 1530 1530 1536 1534 1543 1546 1543 1542 1541 1543 1540 1538 1537 1534 1535 1535 1524 1541 1541 1539 1537 1537 1534 1530 1527 1523
1530 1527 1523 1519 1519 1516 1516 1513 1513 1515 1537 1533 1533 1537 1537 1535 1541 1541 1535 1532 1538 1539 1536 1550 1547 1545 1545 1545 1542 1539 1536 1532 1531 1533 1535 1528 1540 1552 1541 1541 1540 1536 1532 1529 1525
1530 1527 1524 1521 1520 1518 1515 1514 1516 1524 1540 1538 1538 1541 1540 1543 1546 1548 1541 1538 1541 1542 1543 1548 1546 1547 1547 1543 1541 1540 1535 1528 1527 1531 1551 1532 1534 1566 1555 1553 1545 1539 1534 1529 1524
1530 1527 1524 1522 1520 1517 1515 1516 1526 1533 1541 1546 1547 1545 1546 1550 1551 1552 1552 1551 1554 1552 1557 1553 1550 1548 1548 1546 1539 1540 1539 1548 1557 1563 1542 1533 1543 1565 1554 1550 1547 1541 1535 1530 1525
1530 1527 1525 1522 1520 1517 1516 1518 1526 1549 1554 1553 1551 1550 1553 1555 1556 1557 1557 1561 1559 1560 1563 1563 1555 1551 1550 1550 1550 1545 1545 1562 1594 1570 1561 1539 1578 1565 1550 1548 1546 1543 1538 1531 1524
1529 1526 1525 1522 1520 1518 1518 1540 1558 1557 1557 1556 1553 1554 1560 1558 1558 1561 1565 1565 1564 1563 1566 1568 1559 1551 1548 1548 1550 1548 1550 1550 1562 1561 1550 1544 1555 1551 1546 1546 1544 1540 1534 1528 1523
1527 1525 1523 1521 1518 1516 1521 1550 1557 1557 1555 1554 1556 1561 1564 1565 1563 1562 1565 1565 1565 1564 1563 1566 1572 1553 1550 1548 1550 1551 1551 1558 1554 1569 1552 1566 1565 1564 1559 1552 1545 1538 1533 1527 1522
1527 1525 1525 1521 1519 1518 1542 1552 1555 1555 1555 1555 1557 1562 1566 1567 1566 1567 1569 1567 1565 1565 1564 1565 1570 1561 1553 1555 1556 1555 1560 1558 1559 1554 1571 1562 1570 1558 1559 1550 1545 1538 1534 1528 1521
1526 1527 1525 1522 1524 1537 1549 1550 1554 1555 1557 1557 1558 1560 1563 1564 1565 1566 1567 1565 1564 1564 1566 1565 1570 1575 1561 1556 1556 1558 1563 1564 1566 1569 1557 1566 1565 1549 1549 1545 1542 1537 1531 1526 1521
1528 1527 1526 1522 1534 1547 1551 1552 1555 1556 1558 1558 1561 1561 1563 1564 1565 1565 1565 1564 1563 1562 1563 1564 1575 1584 1565 1563 1562 1563 1559 1560 1561 1558 1558 1570 1566 1546 1546 1542 1540 1536 1529 1523 1517
1531 1532 1531 1531 1540 1544 1551 1557 1559 1559 1560 1559 1560 1562 1564 1564 1564 1566 1566 1564 1563 1563 1562 1561 1567 1575 1588 1570 1561 1559 1559 1559 1563 1566 1567 1566 1556 1545 1545 1542 1537 1532 1527 1521 1514
1532 1538 1538 1545 1546 1546 1549 1555 1557 1559 1561 1562 1563 1563 1564 1566 1565 1566 1566 1564 1562 1562 1561 1562 1567 1566 1562 1560 1559 1557 1558 1560 1562 1563 1562 1555 1552 1547 1548 1543 1537 1532 1525 1518 1511
1534 1536 1543 1547 1547 1547 1551 1555 1558 1561 1561 1562 1563 1565 1565 1566 1566 1570 1567 1567 1565 1565 1562 1563 1565 1560 1561 1555 1556 1558 1560 1560 1559 1558 1557 1554 1551 1551 1546 1540 1535 1528 1522 1515 1509
1532 1536 1537 1550 1552 1553 1556 1556 1558 1559 1563 1563 1564 1565 1565 1564 1562 1563 1564 1564 1566 1568 1567 1566 1568 1569 1565 1555 1560 1566 1566 1562 1561 1558 1556 1557 1556 1550 1543 1538 1533 1525 1520 1515 1508